Hourly Weather Kislyakovo

Today, 30 July, Friday

Time Temperature Precipitation Wind Pressure Humidity
00:00 +18°C° 0.1 mm 2 mps 735 mmHg 83%
01:00 +17°C° 0.1 mm 2 mps 735 mmHg 87%
02:00 +17°C° 0.1 mm 2 mps 735 mmHg 90%
03:00 +17°C° 0.2 mm 2 mps 735 mmHg 92%
04:00 +18°C° 0.2 mm 1 mps 735 mmHg 94%
05:00 +18°C° 0.2 mm 1 mps 735 mmHg 96%
06:00 +19°C° 0.2 mm 1 mps 735 mmHg 95%
07:00 +19°C° 0.2 mm 1 mps 735 mmHg 93%
08:00 +20°C° 0.2 mm 1 mps 735 mmHg 92%
09:00 +20°C° 0.3 mm 2 mps 735 mmHg 86%
10:00 +23°C° 0.3 mm 2 mps 735 mmHg 80%
11:00 +24°C° 0.3 mm 2 mps 735 mmHg 75%
12:00 +24°C° 0.4 mm 3 mps 734 mmHg 72%
13:00 +24°C° 0.4 mm 3 mps 734 mmHg 69%
14:00 +25°C° 0.4 mm 3 mps 734 mmHg 67%
15:00 +24°C° 0.2 mm 2 mps 734 mmHg 69%
16:00 +23°C° 0.2 mm 2 mps 734 mmHg 70%
17:00 +21°C° 0.2 mm 2 mps 734 mmHg 72%
18:00 +20°C° 0.1 mm 2 mps 734 mmHg 76%
19:00 +19°C° 0.1 mm 2 mps 734 mmHg 80%
20:00 +18°C° 0.1 mm 2 mps 734 mmHg 83%
21:00 +17°C° 0 mm 2 mps 734 mmHg 85%
22:00 +16°C° 0 mm 2 mps 734 mmHg 87%
23:00 +16°C° 0 mm 2 mps 733 mmHg 89%

Tomorrow, 31 July, Saturday

Time Temperature Precipitation Wind Pressure Humidity
00:00 +15°C° 0 mm 2 mps 733 mmHg 88%
01:00 +13°C° 0 mm 3 mps 733 mmHg 87%
02:00 +13°C° 0 mm 3 mps 733 mmHg 87%
03:00 +13°C° 0 mm 3 mps 733 mmHg 83%
04:00 +14°C° 0 mm 3 mps 733 mmHg 80%
05:00 +14°C° 0 mm 4 mps 733 mmHg 76%
06:00 +15°C° 0 mm 4 mps 733 mmHg 71%
07:00 +17°C° 0 mm 5 mps 733 mmHg 66%
08:00 +19°C° 0 mm 5 mps 733 mmHg 61%
09:00 +19°C° 0.2 mm 5 mps 733 mmHg 66%
10:00 +17°C° 0.2 mm 5 mps 733 mmHg 71%
11:00 +17°C° 0.2 mm 5 mps 733 mmHg 76%
12:00 +19°C° 0.1 mm 5 mps 734 mmHg 69%
13:00 +21°C° 0.1 mm 5 mps 734 mmHg 63%
14:00 +23°C° 0.1 mm 6 mps 734 mmHg 56%
15:00 +23°C° 0 mm 5 mps 734 mmHg 56%
16:00 +23°C° 0 mm 5 mps 734 mmHg 56%
17:00 +23°C° 0 mm 5 mps 735 mmHg 57%
18:00 +21°C° 0 mm 4 mps 735 mmHg 64%
19:00 +20°C° 0 mm 3 mps 735 mmHg 71%
20:00 +18°C° 0 mm 3 mps 736 mmHg 78%
21:00 +18°C° 0 mm 2 mps 736 mmHg 84%
22:00 +17°C° 0 mm 2 mps 736 mmHg 89%
23:00 +16°C° 0 mm 2 mps 736 mmHg 94%

Day after tomorrow, 1 August, Sunday

Time Temperature Precipitation Wind Pressure Humidity
00:00 +16°C° 0 mm 2 mps 736 mmHg 95%
01:00 +16°C° 0 mm 2 mps 737 mmHg 96%
02:00 +15°C° 0 mm 2 mps 737 mmHg 97%
03:00 +16°C° 0 mm 2 mps 737 mmHg 95%
04:00 +16°C° 0 mm 2 mps 737 mmHg 94%
05:00 +16°C° 0 mm 1 mps 737 mmHg 92%
06:00 +18°C° 0 mm 2 mps 737 mmHg 84%
07:00 +20°C° 0 mm 2 mps 737 mmHg 75%
08:00 +21°C° 0 mm 3 mps 737 mmHg 66%
09:00 +21°C° 0 mm 3 mps 737 mmHg 67%
10:00 +20°C° 0 mm 3 mps 737 mmHg 68%
11:00 +20°C° 0 mm 4 mps 737 mmHg 69%
12:00 +21°C° 0 mm 3 mps 737 mmHg 68%
13:00 +21°C° 0 mm 3 mps 737 mmHg 66%
14:00 +22°C° 0 mm 3 mps 737 mmHg 65%
15:00 +22°C° 0 mm 3 mps 737 mmHg 66%
16:00 +22°C° 0 mm 3 mps 737 mmHg 67%
17:00 +23°C° 0 mm 2 mps 736 mmHg 68%
18:00 +21°C° 0 mm 2 mps 736 mmHg 74%
19:00 +20°C° 0 mm 2 mps 736 mmHg 81%
20:00 +18°C° 0 mm 2 mps 736 mmHg 87%
21:00 +18°C° 0 mm 2 mps 736 mmHg 90%
22:00 +17°C° 0 mm 2 mps 737 mmHg 93%
23:00 +17°C° 0 mm 2 mps 737 mmHg 95%

2 August, Monday

Time Temperature Precipitation Wind Pressure Humidity
00:00 +16°C° 0 mm 2 mps 737 mmHg 96%
01:00 +16°C° 0 mm 2 mps 737 mmHg 96%
02:00 +16°C° 0 mm 2 mps 737 mmHg 97%
03:00 +16°C° 0 mm 2 mps 737 mmHg 95%
04:00 +16°C° 0 mm 1 mps 737 mmHg 93%
05:00 +16°C° 0 mm 1 mps 736 mmHg 91%
06:00 +20°C° 0 mm 1 mps 737 mmHg 80%
07:00 +22°C° 0 mm 1 mps 737 mmHg 70%
08:00 +24°C° 0 mm 2 mps 737 mmHg 59%
09:00 +25°C° 0 mm 2 mps 736 mmHg 54%
10:00 +26°C° 0 mm 2 mps 736 mmHg 49%
11:00 +27°C° 0 mm 3 mps 736 mmHg 43%
12:00 +25°C° 0.1 mm 2 mps 736 mmHg 54%
13:00 +23°C° 0.1 mm 2 mps 736 mmHg 64%
14:00 +20°C° 0.1 mm 2 mps 736 mmHg 75%
15:00 +20°C° 0.2 mm 2 mps 735 mmHg 80%
16:00 +20°C° 0.2 mm 2 mps 734 mmHg 86%
17:00 +20°C° 0.2 mm 2 mps 733 mmHg 91%
18:00 +20°C° 1.5 mm 3 mps 733 mmHg 93%
19:00 +19°C° 1.5 mm 3 mps 732 mmHg 95%
20:00 +19°C° 1.5 mm 3 mps 732 mmHg 97%
21:00 +19°C° 1.2 mm 3 mps 732 mmHg 97%
22:00 +18°C° 1.2 mm 3 mps 731 mmHg 98%
23:00 +18°C° 1.2 mm 3 mps 731 mmHg 98%

3 August, Tuesday

Time Temperature Precipitation Wind Pressure Humidity
00:00 +17°C° 0.3 mm 3 mps 731 mmHg 98%
01:00 +17°C° 0.3 mm 3 mps 732 mmHg 97%
02:00 +17°C° 0.3 mm 3 mps 732 mmHg 97%
03:00 +15°C° 0.1 mm 4 mps 732 mmHg 96%
04:00 +14°C° 0.1 mm 4 mps 733 mmHg 96%
05:00 +14°C° 0.1 mm 5 mps 733 mmHg 96%
06:00 +14°C° 0.1 mm 4 mps 734 mmHg 94%
07:00 +14°C° 0.1 mm 4 mps 735 mmHg 92%
08:00 +14°C° 0.1 mm 4 mps 735 mmHg 89%
09:00 +17°C° 0 mm 4 mps 736 mmHg 77%
10:00 +20°C° 0 mm 4 mps 736 mmHg 65%
11:00 +22°C° 0 mm 4 mps 736 mmHg 53%
12:00 +21°C° 0.4 mm 4 mps 737 mmHg 58%
13:00 +21°C° 0.4 mm 4 mps 737 mmHg 64%
14:00 +21°C° 0.4 mm 4 mps 737 mmHg 69%
15:00 +20°C° 0.4 mm 4 mps 737 mmHg 72%
16:00 +20°C° 0.4 mm 4 mps 737 mmHg 74%
17:00 +19°C° 0.4 mm 3 mps 737 mmHg 77%
18:00 +18°C° 0.2 mm 3 mps 737 mmHg 82%
19:00 +16°C° 0.2 mm 2 mps 738 mmHg 87%
20:00 +15°C° 0.2 mm 2 mps 738 mmHg 92%
21:00 +14°C° 0 mm 2 mps 738 mmHg 94%
22:00 +14°C° 0 mm 2 mps 738 mmHg 95%
23:00 +13°C° 0 mm 2 mps 738 mmHg 96%

4 August, Wednesday

Time Temperature Precipitation Wind Pressure Humidity
00:00 +13°C° 0 mm 2 mps 739 mmHg 96%
01:00 +13°C° 0 mm 2 mps 739 mmHg 97%
02:00 +12°C° 0 mm 2 mps 739 mmHg 98%
03:00 +12°C° 0 mm 2 mps 740 mmHg 98%
04:00 +12°C° 0 mm 2 mps 740 mmHg 98%
05:00 +12°C° 0 mm 2 mps 740 mmHg 98%
06:00 +12°C° 0 mm 3 mps 741 mmHg 93%
07:00 +13°C° 0 mm 3 mps 741 mmHg 88%
08:00 +14°C° 0 mm 3 mps 742 mmHg 83%
09:00 +16°C° 0 mm 3 mps 742 mmHg 75%
10:00 +17°C° 0 mm 3 mps 742 mmHg 68%
11:00 +18°C° 0 mm 3 mps 743 mmHg 61%
12:00 +19°C° 0 mm 4 mps 743 mmHg 56%
13:00 +20°C° 0 mm 4 mps 743 mmHg 52%
14:00 +21°C° 0 mm 4 mps 743 mmHg 47%
15:00 +20°C° 0 mm 4 mps 744 mmHg 51%
16:00 +20°C° 0 mm 4 mps 744 mmHg 55%
17:00 +19°C° 0 mm 3 mps 744 mmHg 59%
18:00 +17°C° 0 mm 3 mps 744 mmHg 67%
19:00 +15°C° 0 mm 2 mps 745 mmHg 76%
20:00 +13°C° 0 mm 1 mps 745 mmHg 84%
21:00 +13°C° 0 mm 1 mps 745 mmHg 87%
22:00 +12°C° 0 mm 1 mps 745 mmHg 89%
23:00 +11°C° 0 mm 1 mps 746 mmHg 92%
Show more